| time (UTC) | temp F | wind direction | speed MPH | gust MPH | rain 1hr in | rain 24hr in | rain mn in | humidity % | barometer mb |
| 20260903200542 | 72 | 202 | 3.0 | 5.0 | 0.00 | 0.00 | 0.00 | 59 | 1021.4 |
| 20260903195542 | 72 | 135 | 2.0 | 5.0 | 0.00 | 0.00 | 0.00 | 59 | 1021.6 |
| 20260903194544 | 72 | 135 | 1.0 | 4.0 | 0.00 | 0.00 | 0.00 | 59 | 1021.6 |
| 20260903193543 | 72 | 202 | 2.0 | 4.0 | 0.00 | 0.00 | 0.00 | 58 | 1021.7 |
| 20260903192543 | 72 | 225 | 2.0 | 3.0 | 0.00 | 0.00 | 0.00 | 58 | 1021.7 |
| 20260903191543 | 73 | 225 | 1.0 | 3.0 | 0.00 | 0.00 | 0.00 | 57 | 1021.5 |
| 20260903190301 | 73 | 225 | 2.0 | 5.0 | 0.00 | 0.00 | 0.00 | 56 | 1021.3 |
| 20260903185301 | 73 | 225 | 2.0 | 5.0 | 0.00 | 0.00 | 0.00 | 55 | 1021.3 |
| 20260903184301 | 73 | 225 | 3.0 | 5.0 | 0.00 | 0.00 | 0.00 | 55 | 1021.1 |
| 20260903183301 | 74 | 225 | 3.0 | 5.0 | 0.00 | 0.00 | 0.00 | 55 | 1020.9 |
| 20260903182301 | 74 | 225 | 3.0 | 5.0 | 0.00 | 0.00 | 0.00 | 54 | 1020.9 |
| 20260903181303 | 75 | 225 | 3.0 | 5.0 | 0.00 | 0.00 | 0.00 | 53 | 1021.0 |
| 20260903180303 | 75 | 225 | 2.0 | 4.0 | 0.00 | 0.00 | 0.00 | 52 | 1020.9 |
| 20260903175305 | 76 | 225 | 3.0 | 5.0 | 0.00 | 0.00 | 0.00 | 52 | 1020.8 |
| 20260903174302 | 76 | 248 | 3.0 | 5.0 | 0.00 | 0.00 | 0.00 | 51 | 1020.9 |
| 20260903173302 | 76 | 270 | 2.0 | 5.0 | 0.00 | 0.00 | 0.00 | 50 | 1021.1 |
| 20260903172306 | 77 | 248 | 3.0 | 8.0 | 0.00 | 0.00 | 0.00 | 50 | 1021.0 |
| 20260903171302 | 77 | 248 | 5.0 | 8.0 | 0.00 | 0.00 | 0.00 | 49 | 1021.0 |
| 20260903170302 | 77 | 248 | 6.0 | 12.0 | 0.00 | 0.00 | 0.00 | 48 | 1020.9 |
| 20260903165305 | 78 | 248 | 6.0 | 11.0 | 0.00 | 0.00 | 0.00 | 48 | 1020.9 |
| 20260903164302 | 78 | 248 | 6.0 | 10.0 | 0.00 | 0.00 | 0.00 | 48 | 1020.8 |
| 20260903163302 | 77 | 248 | 7.0 | 13.0 | 0.00 | 0.00 | 0.00 | 48 | 1020.8 |
| 20260903162305 | 77 | 270 | 8.0 | 14.0 | 0.00 | 0.00 | 0.00 | 47 | 1020.8 |
| 20260903161302 | 78 | 270 | 9.0 | 15.0 | 0.00 | 0.00 | 0.00 | 47 | 1020.9 |
| 20260903160302 | 78 | 270 | 9.0 | 16.0 | 0.00 | 0.00 | 0.00 | 46 | 1020.9 |
| 20260903155302 | 77 | 248 | 9.0 | 17.0 | 0.00 | 0.00 | 0.00 | 47 | 1020.8 |
| 20260903154301 | 77 | 270 | 9.0 | 16.0 | 0.00 | 0.00 | 0.00 | 47 | 1020.9 |
| 20260903153301 | 77 | 270 | 8.0 | 16.0 | 0.00 | 0.00 | 0.00 | 47 | 1021.1 |
| 20260903152301 | 78 | 270 | 8.0 | 14.0 | 0.00 | 0.00 | 0.00 | 47 | 1021.2 |
| 20260903151301 | 78 | 270 | 9.0 | 16.0 | 0.00 | 0.00 | 0.00 | 47 | 1021.2 |
| 20260903150303 | 78 | 270 | 8.0 | 15.0 | 0.00 | 0.00 | 0.00 | 47 | 1021.2 |
| 20260903145305 | 78 | 292 | 6.0 | 13.0 | 0.00 | 0.00 | 0.00 | 48 | 1021.4 |
| 20260903144302 | 78 | 292 | 8.0 | 14.0 | 0.00 | 0.00 | 0.00 | 48 | 1021.4 |
| 20260903143302 | 78 | 315 | 7.0 | 13.0 | 0.00 | 0.00 | 0.00 | 48 | 1021.3 |
| 20260903142305 | 78 | 292 | 8.0 | 14.0 | 0.00 | 0.00 | 0.00 | 47 | 1021.4 |
| 20260903141302 | 79 | 292 | 7.0 | 15.0 | 0.00 | 0.00 | 0.00 | 46 | 1021.3 |
| 20260903140302 | 78 | 270 | 8.0 | 16.0 | 0.00 | 0.00 | 0.00 | 48 | 1021.3 |
| 20260903135302 | 78 | 292 | 9.0 | 16.0 | 0.00 | 0.00 | 0.00 | 48 | 1021.4 |
| 20260903134302 | 78 | 292 | 7.0 | 12.0 | 0.00 | 0.00 | 0.00 | 48 | 1021.5 |
| 20260903133301 | 78 | 270 | 4.0 | 9.0 | 0.00 | 0.00 | 0.00 | 47 | 1021.6 |
| 20260903132301 | 78 | 270 | 8.0 | 14.0 | 0.00 | 0.00 | 0.00 | 47 | 1021.7 |
| 20260903131301 | 78 | 292 | 5.0 | 12.0 | 0.00 | 0.00 | 0.00 | 48 | 1021.7 |
| 20260903130301 | 78 | 292 | 6.0 | 12.0 | 0.00 | 0.00 | 0.00 | 48 | 1021.8 |
| 20260903125305 | 77 | 292 | 6.0 | 12.0 | 0.00 | 0.00 | 0.00 | 49 | 1021.9 |
| 20260903124303 | 76 | 270 | 6.0 | 11.0 | 0.00 | 0.00 | 0.00 | 50 | 1021.9 |
| 20260903123303 | 76 | 270 | 5.0 | 9.0 | 0.00 | 0.00 | 0.00 | 50 | 1021.8 |
| 20260903122300 | 76 | 270 | 6.0 | 14.0 | 0.00 | 0.00 | 0.00 | 51 | 1021.9 |
| 20260903121300 | 76 | 292 | 7.0 | 9.0 | 0.00 | 0.00 | 0.00 | 51 | 1022.0 |
| 20260903120300 | 73 | 270 | 7.0 | 3.0 | 0.00 | 0.00 | 0.00 | 54 | 1022.0 |
| 20260903115305 | 73 | 270 | 7.0 | 3.0 | 0.00 | 0.00 | 0.00 | 54 | 1022.1 |
| 20260903114301 | 73 | 270 | 7.0 | 3.0 | 0.00 | 0.00 | 0.00 | 54 | 1021.9 |
| 20260903113301 | 73 | 270 | 7.0 | 3.0 | 0.00 | 0.00 | 0.00 | 54 | 1022.2 |
| 20260903112301 | 73 | 270 | 7.0 | 3.0 | 0.00 | 0.00 | 0.00 | 54 | 1022.3 |
| 20260903111301 | 73 | 270 | 7.0 | 3.0 | 0.00 | 0.00 | 0.00 | 54 | 1022.6 |
| 20260903110302 | 73 | 270 | 7.0 | 3.0 | 0.00 | 0.00 | 0.00 | 54 | 1022.7 |
| 20260903105301 | 73 | 270 | 7.0 | 3.0 | 0.00 | 0.00 | 0.00 | 54 | 1022.7 |
| 20260903104301 | 73 | 270 | 7.0 | 3.0 | 0.00 | 0.00 | 0.00 | 54 | 1022.8 |
| 20260903103301 | 73 | 270 | 7.0 | 3.0 | 0.00 | 0.00 | 0.00 | 54 | 1023.0 |
| 20260903102301 | 73 | 270 | 7.0 | 3.0 | 0.00 | 0.00 | 0.00 | 54 | 1023.2 |
| 20260903101259 | 73 | 270 | 7.0 | 9.0 | 0.00 | 0.00 | 0.00 | 54 | 1023.3 |
| 20260903100301 | 73 | 270 | 7.0 | 11.0 | 0.00 | 0.00 | 0.00 | 54 | 1023.3 |
| 20260903095300 | 73 | 270 | 5.0 | 11.0 | 0.00 | 0.00 | 0.00 | 55 | 1023.4 |
| 20260903094300 | 73 | 270 | 6.0 | 12.0 | 0.00 | 0.00 | 0.00 | 54 | 1023.5 |
| 20260903093300 | 74 | 248 | 4.0 | 13.0 | 0.00 | 0.00 | 0.00 | 53 | 1023.4 |
| 20260903092259 | 73 | 270 | 4.0 | 9.0 | 0.00 | 0.00 | 0.00 | 55 | 1023.3 |
| 20260903091259 | 71 | 270 | 4.0 | 9.0 | 0.00 | 0.00 | 0.00 | 57 | 1023.6 |
| 20260903090301 | 71 | 270 | 6.0 | 13.0 | 0.00 | 0.00 | 0.00 | 57 | 1023.8 |
| 20260903085300 | 71 | 248 | 5.0 | 9.0 | 0.00 | 0.00 | 0.00 | 56 | 1023.5 |
| 20260903084300 | 71 | 270 | 6.0 | 11.0 | 0.00 | 0.00 | 0.00 | 56 | 1023.6 |
| 20260903083300 | 71 | 248 | 3.0 | 8.0 | 0.00 | 0.00 | 0.00 | 59 | 1023.4 |
| 20260903082300 | 70 | 202 | 3.0 | 8.0 | 0.00 | 0.00 | 0.00 | 62 | 1023.3 |
| 20260903081300 | 69 | 202 | 2.0 | 7.0 | 0.00 | 0.00 | 0.00 | 66 | 1023.2 |
| 20260903080259 | 67 | 225 | 2.0 | 5.0 | 0.00 | 0.00 | 0.00 | 67 | 1023.5 |
| 20260903075259 | 67 | 135 | 1.0 | 4.0 | 0.00 | 0.00 | 0.00 | 70 | 1023.3 |
| 20260903074259 | 66 | 0 | 0.0 | 0.0 | 0.00 | 0.00 | 0.00 | 73 | 1023.5 |
| 20260903073259 | 64 | 0 | 0.0 | 0.0 | 0.00 | 0.00 | 0.00 | 75 | 1023.3 |
| 20260903072259 | 56 | 0 | 0.0 | 0.0 | 0.00 | 0.00 | 0.00 | 87 | 1023.6 |
| 20260903071259 | 56 | 0 | 0.0 | 0.0 | 0.00 | 0.00 | 0.00 | 87 | 1023.6 |
| 20260903070258 | 56 | 0 | 0.0 | 0.0 | 0.00 | 0.00 | 0.00 | 87 | 1023.5 |
| 20260903065258 | 56 | 0 | 0.0 | 0.0 | 0.00 | 0.00 | 0.00 | 87 | 1023.3 |
| 20260903064258 | 56 | 0 | 0.0 | 0.0 | 0.00 | 0.00 | 0.00 | 87 | 1023.4 |
| 20260903063300 | 56 | 0 | 0.0 | 0.0 | 0.00 | 0.00 | 0.00 | 87 | 1023.3 |
| 20260903062300 | 56 | 0 | 0.0 | 0.0 | 0.00 | 0.00 | 0.00 | 87 | 1023.4 |
| 20260903061259 | 56 | 0 | 0.0 | 0.0 | 0.00 | 0.00 | 0.00 | 87 | 1023.4 |
| 20260903060259 | 56 | 0 | 0.0 | 0.0 | 0.00 | 0.00 | 0.00 | 87 | 1023.3 |
| 20260903055259 | 56 | 0 | 0.0 | 0.0 | 0.00 | 0.00 | 0.00 | 87 | 1023.6 |
| 20260903054259 | 56 | 0 | 0.0 | 0.0 | 0.00 | 0.00 | 0.00 | 87 | 1023.6 |
| 20260903053259 | 56 | 0 | 0.0 | 0.0 | 0.00 | 0.00 | 0.00 | 87 | 1023.6 |
| 20260903052258 | 56 | 0 | 0.0 | 0.0 | 0.00 | 0.00 | 0.00 | 87 | 1023.3 |
| 20260903051308 | 56 | 0 | 0.0 | 0.0 | 0.00 | 0.00 | 0.00 | 87 | 1023.3 |
| 20260903050308 | 56 | 0 | 0.0 | 0.0 | 0.00 | 0.00 | 0.00 | 87 | 1023.0 |
| 20260903045307 | 56 | 0 | 0.0 | 0.0 | 0.00 | 0.00 | 0.00 | 87 | 1023.0 |
| 20260903044309 | 56 | 0 | 0.0 | 0.0 | 0.00 | 0.00 | 0.00 | 87 | 1022.8 |
| 20260903043308 | 56 | 0 | 0.0 | 0.0 | 0.00 | 0.00 | 0.00 | 87 | 1022.6 |
| 20260903042307 | 56 | 0 | 0.0 | 0.0 | 0.00 | 0.00 | 0.00 | 87 | 1022.6 |
| 20260903041307 | 56 | 0 | 0.0 | 0.0 | 0.00 | 0.00 | 0.00 | 87 | 1022.6 |
| 20260903040308 | 56 | 0 | 0.0 | 0.0 | 0.00 | 0.00 | 0.00 | 87 | 1022.7 |
| 20260903035308 | 56 | 0 | 0.0 | 0.0 | 0.00 | 0.00 | 0.00 | 87 | 1022.9 |
| 20260903034307 | 56 | 0 | 0.0 | 0.0 | 0.00 | 0.00 | 0.00 | 87 | 1022.9 |
| 20260903033307 | 56 | 0 | 0.0 | 0.0 | 0.00 | 0.00 | 0.00 | 87 | 1023.0 |
| 20260903032307 | 56 | 0 | 0.0 | 0.0 | 0.00 | 0.00 | 0.00 | 86 | 1023.2 |
| 20260903031307 | 56 | 0 | 0.0 | 0.0 | 0.00 | 0.00 | 0.00 | 85 | 1023.0 |
| 20260903030309 | 56 | 0 | 0.0 | 0.0 | 0.00 | 0.00 | 0.00 | 86 | 1022.9 |
| 20260903025309 | 57 | 0 | 0.0 | 0.0 | 0.00 | 0.00 | 0.00 | 85 | 1022.9 |
| 20260903024308 | 57 | 0 | 0.0 | 0.0 | 0.00 | 0.00 | 0.00 | 85 | 1023.0 |
| 20260903023308 | 57 | 0 | 0.0 | 0.0 | 0.00 | 0.00 | 0.00 | 84 | 1023.0 |
| 20260903022308 | 58 | 0 | 0.0 | 0.0 | 0.00 | 0.00 | 0.00 | 83 | 1023.0 |
| 20260903021308 | 58 | 0 | 0.0 | 0.0 | 0.00 | 0.00 | 0.00 | 82 | 1023.0 |
| 20260903020308 | 58 | 0 | 0.0 | 0.0 | 0.00 | 0.00 | 0.00 | 82 | 1022.9 |
| 20260903015308 | 58 | 0 | 0.0 | 0.0 | 0.00 | 0.00 | 0.00 | 82 | 1022.9 |
| 20260903014307 | 59 | 0 | 0.0 | 0.0 | 0.00 | 0.00 | 0.00 | 82 | 1022.9 |
| 20260903013307 | 59 | 0 | 0.0 | 0.0 | 0.00 | 0.00 | 0.00 | 81 | 1022.9 |
| 20260903012307 | 59 | 0 | 0.0 | 0.0 | 0.00 | 0.00 | 0.00 | 81 | 1022.9 |
| 20260903011307 | 59 | 0 | 0.0 | 0.0 | 0.00 | 0.00 | 0.00 | 80 | 1022.9 |
| 20260903010309 | 60 | 0 | 0.0 | 0.0 | 0.00 | 0.00 | 0.00 | 80 | 1023.0 |
| 20260903005308 | 60 | 180 | 0.0 | 1.0 | 0.00 | 0.00 | 0.00 | 79 | 1022.9 |
| 20260903004308 | 60 | 180 | 1.0 | 2.0 | 0.00 | 0.00 | 0.00 | 78 | 1022.9 |
| 20260903003308 | 60 | 180 | 0.0 | 1.0 | 0.00 | 0.00 | 0.00 | 78 | 1022.9 |
| 20260903002308 | 61 | 180 | 0.0 | 1.0 | 0.00 | 0.00 | 0.00 | 77 | 1022.9 |
| 20260903001308 | 61 | 0 | 0.0 | 0.0 | 0.00 | 0.00 | 0.00 | 76 | 1022.9 |
| 20260903000310 | 61 | 180 | 0.0 | 2.0 | 0.00 | 0.00 | 0.00 | 76 | 1022.9 |
| 20260902235308 | 61 | 180 | 1.0 | 2.0 | 0.00 | 0.00 | 0.00 | 78 | 1022.9 |
| 20260902234307 | 62 | 180 | 1.0 | 4.0 | 0.00 | 0.00 | 0.00 | 77 | 1022.9 |
| 20260902233307 | 62 | 180 | 2.0 | 4.0 | 0.00 | 0.00 | 0.00 | 76 | 1023.0 |
| 20260902232307 | 62 | 180 | 1.0 | 4.0 | 0.00 | 0.00 | 0.00 | 75 | 1022.8 |
| 20260902231309 | 63 | 180 | 1.0 | 4.0 | 0.00 | 0.00 | 0.00 | 74 | 1022.8 |
| 20260902230309 | 63 | 180 | 1.0 | 2.0 | 0.00 | 0.00 | 0.00 | 73 | 1022.8 |
| 20260902225308 | 64 | 180 | 1.0 | 4.0 | 0.00 | 0.00 | 0.00 | 71 | 1022.8 |
| 20260902224308 | 64 | 180 | 2.0 | 4.0 | 0.00 | 0.00 | 0.00 | 70 | 1022.8 |
| 20260902223308 | 65 | 158 | 1.0 | 4.0 | 0.00 | 0.00 | 0.00 | 69 | 1022.7 |
| 20260902222308 | 64 | 158 | 2.0 | 4.0 | 0.00 | 0.00 | 0.00 | 70 | 1022.7 |
| 20260902221308 | 65 | 158 | 1.0 | 4.0 | 0.00 | 0.00 | 0.00 | 70 | 1022.6 |
| 20260902220307 | 65 | 180 | 2.0 | 5.0 | 0.00 | 0.00 | 0.00 | 70 | 1022.7 |
| 20260902215307 | 65 | 180 | 2.0 | 4.0 | 0.00 | 0.00 | 0.00 | 70 | 1022.6 |
| 20260902214307 | 65 | 180 | 2.0 | 4.0 | 0.00 | 0.00 | 0.00 | 70 | 1022.7 |
| 20260902213307 | 65 | 180 | 2.0 | 4.0 | 0.00 | 0.00 | 0.00 | 71 | 1022.6 |
| 20260902212309 | 66 | 180 | 0.0 | 4.0 | 0.00 | 0.00 | 0.00 | 70 | 1022.5 |
| 20260902211308 | 66 | 180 | 1.0 | 4.0 | 0.00 | 0.00 | 0.00 | 68 | 1022.5 |
| 20260902210308 | 67 | 180 | 2.0 | 5.0 | 0.00 | 0.00 | 0.00 | 68 | 1022.6 |
| 20260902205308 | 67 | 158 | 2.0 | 5.0 | 0.00 | 0.00 | 0.00 | 67 | 1022.5 |
| 20260902204308 | 67 | 158 | 1.0 | 2.0 | 0.00 | 0.00 | 0.00 | 66 | 1022.4 |
| 20260902203308 | 67 | 158 | 3.0 | 5.0 | 0.00 | 0.00 | 0.00 | 66 | 1022.4 |
| 20260902202308 | 68 | 180 | 3.0 | 5.0 | 0.00 | 0.00 | 0.00 | 65 | 1022.2 |
| 20260902201307 | 69 | 315 | 1.0 | 2.0 | 0.00 | 0.00 | 0.00 | 63 | 1022.2 |